Weather History for KGRR - April, 2012

Change the Weather History Date:

Thursday, April 12, 2012

  Actual Average Record
Temperature  
Mean Temperature 46 °F 47 °F  
Max Temperature 58 °F 57 °F 82 °F (1977)
Min Temperature 33 °F 37 °F 19 °F (1950)
Degree Days  
Heating Degree Days 19 18  
Month to date heating degree days 212 248  
Since 1 July heating degree days 4812 5935  
Cooling Degree Days 0 0  
Month to date cooling degree days 0 0  
Year to date cooling degree days 26 1  
Moisture  
Dew Point 29 °F    
Average Humidity 55    
Maximum Humidity 75    
Minimum Humidity 35    
Precipitation  
Precipitation 0.00 in 0.12 in 1.10 in (1994)
Month to date precipitation 0.60 1.30  
Year to date precipitation 8.94 7.55  
Snow  
Snow 0.00 in 0.00 in 1.20 in (1989)
Month to date snowfall T 1.2  
Since 1 July snowfall 51.2 74.3  
Snow Depth 0.00 in    
Sea Level Pressure  
Sea Level Pressure 30.23 in    
Wind  
Wind Speed 5 mph (WNW)    
Max Wind Speed 15 mph    
Max Gust Speed 20 mph    
Visibility 10 miles    
Events      
T = Trace of Precipitation, MM = Missing Value Source: NWS Daily Summary

Daily Weather History Graph

Daily Weather History Graph

Search for Another Location

Airport or City:

Trip Planner

Search our weather history database for the weather conditions in past years. The results will help you decide how hot, cold, wet, or windy it might be!

Date:

Astronomy

Apr. 12, 2012 Rise Set
Actual Time 7:04 AM EDT 8:21 PM EDT
Civil Twilight 6:35 AM EDT 8:50 PM EDT
Nautical Twilight 6:00 AM EDT 9:26 PM EDT
Astronomical Twilight 5:23 AM EDT 10:03 PM EDT
Moon 2:13 AM EDT (4/12) 11:53 AM EDT (4/12)
Length of Visible Light 14h 15m
Length of Day
13h 17m
Waning Gibbous, 59% of the Moon is Illuminated
Apr 12
Waning Gibbous
Apr 13
Last Quarter
Apr 21
New
Apr 29
First Quarter
May 5
Full

Hourly Weather History & Observations

Time (EDT) Temp. Windchill Dew Point Humidity Pressure Visibility Wind Dir Wind Speed Gust Speed Precip Events Conditions
12:53 AM 39.0 °F 35.7 °F 28.0 °F 65% 30.24 in 10.0 mi WNW 4.6 mph - N/A   Clear
1:53 AM 37.0 °F 34.5 °F 28.0 °F 70% 30.24 in 10.0 mi NW 3.5 mph - N/A   Clear
2:53 AM 37.4 °F 32.8 °F 28.4 °F 70% 30.21 in 10.0 mi WNW 5.8 mph - N/A   Clear
3:53 AM 35.1 °F 30.1 °F 27.0 °F 72% 30.24 in 10.0 mi NW 5.8 mph - N/A   Clear
4:53 AM 35.1 °F - 27.0 °F 72% 30.24 in 10.0 mi Calm Calm - N/A   Clear
5:53 AM 35.1 °F - 27.0 °F 72% 30.25 in 10.0 mi Calm Calm - N/A   Clear
6:53 AM 33.1 °F 30.0 °F 27.0 °F 78% 30.26 in 10.0 mi NNW 3.5 mph - N/A   Clear
7:53 AM 36.0 °F - 28.0 °F 73% 30.28 in 10.0 mi Calm Calm - N/A   Clear
8:53 AM 39.9 °F - 30.0 °F 68% 30.30 in 10.0 mi Calm Calm - N/A   Clear
9:53 AM 45.0 °F 43.5 °F 30.9 °F 58% 30.29 in 10.0 mi NNW 3.5 mph - N/A   Clear
10:53 AM 48.9 °F - 28.9 °F 46% 30.28 in 10.0 mi Calm Calm - N/A   Partly Cloudy
11:53 AM 51.1 °F - 30.0 °F 44% 30.26 in 10.0 mi Variable 4.6 mph - N/A   Partly Cloudy
12:53 PM 53.1 °F - 30.9 °F 43% 30.25 in 10.0 mi West 10.4 mph 17.3 mph N/A   Partly Cloudy
1:53 PM 54.0 °F - 33.1 °F 45% 30.23 in 10.0 mi West 15.0 mph - N/A   Scattered Clouds
2:53 PM 57.0 °F - 33.1 °F 40% 30.20 in 10.0 mi West 10.4 mph 17.3 mph N/A   Scattered Clouds
3:53 PM 57.0 °F - 30.9 °F 37% 30.19 in 10.0 mi West 10.4 mph 18.4 mph N/A   Scattered Clouds
4:53 PM 55.9 °F - 30.9 °F 39% 30.18 in 10.0 mi West 6.9 mph 17.3 mph N/A   Scattered Clouds
5:53 PM 57.0 °F - 30.0 °F 36% 30.18 in 10.0 mi WNW 11.5 mph 18.4 mph N/A   Scattered Clouds
6:53 PM 55.9 °F - 28.9 °F 36% 30.19 in 10.0 mi WNW 9.2 mph - N/A   Partly Cloudy
7:53 PM 53.1 °F - 28.0 °F 38% 30.19 in 10.0 mi WNW 9.2 mph - N/A   Partly Cloudy
8:53 PM 50.0 °F - 28.0 °F 43% 30.20 in 10.0 mi West 5.8 mph - N/A   Partly Cloudy
9:53 PM 46.9 °F - 28.9 °F 50% 30.21 in 10.0 mi WSW 5.8 mph - N/A   Clear
10:53 PM 46.0 °F 43.1 °F 30.0 °F 54% 30.21 in 10.0 mi West 5.8 mph - N/A   Clear
11:53 PM 44.1 °F - 30.0 °F 58% 30.22 in 10.0 mi Calm Calm - N/A   Clear